Keps
Threads by month
- ----- 2024 -----
- September
- August
- July
- June
- May
- April
- March
- February
- January
- ----- 2023 -----
- December
- November
- October
- September
- August
- July
- June
- May
- April
- March
- February
- January
- ----- 2022 -----
- December
- November
- October
- September
- August
- July
- June
- May
- April
- March
- February
- January
- ----- 2021 -----
- December
- November
- October
- September
- August
- July
- June
- May
- April
- March
- February
- January
- ----- 2020 -----
- December
- November
- October
- September
- August
- July
- June
- May
- April
- March
- February
- January
- ----- 2019 -----
- December
- November
- October
- September
- August
- July
- June
- May
- April
- March
- February
- January
- ----- 2018 -----
- December
- November
- October
- September
- August
- July
- June
- May
- April
- March
- February
- January
- ----- 2017 -----
- December
- November
- October
- September
- August
- July
- June
- May
- April
- March
- February
- January
- ----- 2016 -----
- December
- November
- October
- September
- August
- July
- June
- May
- April
- March
- February
- January
- ----- 2015 -----
- December
- November
- October
- September
- August
- July
- June
- May
- April
- March
- February
- January
- ----- 2014 -----
- December
- November
- October
- September
- August
- July
- June
- May
- April
- March
- February
- January
- ----- 2013 -----
- December
- November
- October
- September
- August
- July
- June
- May
- April
- March
- February
- January
- ----- 2012 -----
- December
- November
- October
- September
- August
- July
- June
- May
- April
- March
- February
- January
- ----- 2011 -----
- December
- November
- October
- September
- August
- July
- June
- May
- April
- March
- February
- January
- ----- 2010 -----
- December
- November
- October
- September
- August
- July
- June
- May
- April
- March
- February
- January
- ----- 2009 -----
- December
- November
- October
- September
- August
- July
- June
- May
- April
- March
- February
- January
- ----- 2008 -----
- December
- November
- October
- September
- August
- July
- June
- May
- April
- March
- February
- January
- ----- 2007 -----
- December
- November
- October
- September
- August
- July
- June
- May
- April
- March
- February
- January
- ----- 2006 -----
- December
- November
- October
- September
May 2014
- 1 participants
- 7 discussions
SB KEPS @ AMSAT $ORB14149.N
2Line Orbital Elements 14149.AMSAT
HR AMSAT ORBITAL ELEMENTS FOR AMATEUR SATELLITES IN NASA FORMAT
FROM WA5QGD FORT WORTH,TX May 29, 2014
BID: ORB14149.N
DECODE 2-LINE ELSETS WITH THE FOLLOWING KEY:
1 AAAAAU 00 0 0 BBBBB.BBBBBBBB .CCCCCCCC 00000-0 00000-0 0 DDDZ
2 AAAAA EEE.EEEE FFF.FFFF GGGGGGG HHH.HHHH III.IIII JJ.JJJJJJJJKKKKKZ
KEY: A-CATALOGNUM B-EPOCHTIME C-DECAY D-ELSETNUM E-INCLINATION F-RAAN
G-ECCENTRICITY H-ARGPERIGEE I-MNANOM J-MNMOTION K-ORBITNUM Z-CHECKSUM
TO ALL RADIO AMATEURS BT
AO-07
1 07530U 74089B 14149.85935569 -.00000021 00000-0 13984-3 0 9769
2 07530 101.4700 132.2952 0011689 333.1073 084.2925 12.53605123809228
FO-29
1 24278U 96046B 14149.73520632 -.00000065 00000-0 -29012-4 0 3833
2 24278 098.5124 166.1381 0350023 345.6994 073.5897 13.53024431878179
SO-33
1 25509U 98061B 14149.70455046 .00000207 00000-0 27955-4 0 7602
2 25509 031.4324 265.1096 0349506 312.4300 155.2993 14.29543385814505
RS-22
1 27939U 03042A 14149.58946389 .00000303 00000-0 64670-4 0 5292
2 27939 097.8077 324.6603 0013443 161.7695 198.3982 14.65190234570001
VO-52
1 28650U 05017B 14149.62950844 .00000724 00000-0 89457-4 0 7506
2 28650 097.5596 155.5249 0024507 215.5623 144.3961 14.85446964490470
HO-68
1 36122U 09072B 14149.71651817 -.00000043 00000-0 00000 0 0 6317
2 36122 100.2493 202.1545 0007275 280.5366 079.4929 13.16315740214003
AO-73
1 39444U 13066AE 14149.74508743 .00001288 00000-0 17916-3 0 1546
2 39444 097.7719 221.0216 0061205 303.7548 055.7763 14.78265041 26744
UO-11
1 14781U 84021B 14148.78412080 .00000339 00000-0 49823-4 0 5030
2 14781 097.8536 209.2881 0007716 236.6428 123.4047 14.81585519625093
AO-16
1 20439U 90005D 14149.79755907 .00000069 00000-0 41436-4 0 336
2 20439 098.5060 087.4803 0010474 207.5974 205.3445 14.32354185271850
LO-19
1 20442U 90005G 14148.79796412 .00000076 00000-0 43829-4 0 9701
2 20442 098.4769 087.2132 0011591 200.1086 159.9643 14.32556747271904
AO-27
1 22825U 93061C 14148.94205370 .00000069 00000-0 44225-4 0 6775
2 22825 098.6607 095.1265 0008152 002.9533 039.4339 14.29717735 78038
IO-26
1 22826U 93061D 14148.79326056 .00000075 00000-0 46295-4 0 4330
2 22826 098.6549 095.2010 0008514 355.4158 004.6944 14.30017804 78144
GO-32
1 25397U 98043D 14149.81503024 .00000030 00000-0 31575-4 0 3578
2 25397 098.4668 108.4898 0001669 053.0700 008.5530 14.23443288825256
NO-44
1 26931U 01043C 14148.95270714 .00000051 00000-0 51765-4 0 6128
2 26931 067.0525 088.0555 0006224 282.9775 077.0631 14.30114491660850
SO-50
1 27607U 02058C 14149.76341692 .00000265 00000-0 60833-4 0 4064
2 27607 064.5574 288.5060 0045299 016.5272 343.7293 14.73757953614762
CO-55
1 27844U 03031E 14148.98457802 .00000164 00000-0 95132-4 0 9347
2 27844 098.6976 158.0336 0008914 337.4569 074.6954 14.21501857565855
CO-57
1 27848U 03031J 14148.98525707 .00000138 00000-0 83471-4 0 8759
2 27848 098.7070 157.7346 0008923 344.4241 068.1008 14.21189326565779
AO-51
1 28375U 04025K 14149.81061245 .00000141 00000-0 54528-4 0 8513
2 28375 098.2489 097.3465 0083934 048.7256 312.1123 14.41381506521262
CP3
1 31129U 07012N 14149.53471750 .00000649 00000-0 15217-3 0 7588
2 31129 097.9323 128.4637 0099822 069.5344 055.5591 14.54659100377320
CO-65
1 32785U 08021C 14149.16747852 .00000852 00000-0 10529-3 0 9619
2 32785 097.7009 201.0881 0012603 247.2672 180.9127 14.85261562329205
PRISM
1 33493U 09002B 14149.73835395 .00003401 00000-0 36369-3 0 9601
2 33493 098.2476 324.6087 0018708 140.9363 219.3168 14.89352196289434
SOHLA-1
1 33496U 09002E 14149.82998446 .00000201 00000-0 41148-4 0 3624
2 33496 098.1680 270.7185 0005063 304.8394 172.9514 14.70798973286813
TISAT-1
1 36799U 10035E 14149.76380254 .00002088 00000-0 24724-3 0 2215
2 36799 098.0164 241.6206 0014493 027.6225 332.5745 14.85606546209982
STUDSAT
1 36801U 10035G 14149.82324980 .00004607 00000-0 41142-3 0 8308
2 36801 098.0349 249.3661 0007929 000.0477 114.4072 14.96426896210387
ALMASAT-1
1 38078U 12006B 14149.79959209 .00030366 00000-0 65544-3 0 383
2 38078 069.4695 103.6072 0597246 056.2310 020.9907 14.48625466118975
XATCOBEO
1 38082U 12006F 14149.76704622 .00200650 13728-4 12783-2 0 2627
2 38082 069.4425 008.0187 0223570 003.3951 086.9363 15.49199842121536
CUBEBUG-1
1 39153U 13018D 14149.73630808 .00001212 00000-0 17615-3 0 1618
2 39153 098.0438 230.0756 0019078 053.3540 306.9424 14.77685659 58833
ESTCUBE-1
1 39161U 13021C 14149.77594301 .00000958 00000-0 16806-3 0 1439
2 39161 098.0979 230.8081 0011674 093.3603 266.8916 14.69972437 56897
MET-2/21
1 22782U 93055A 14149.71613941 .00000014 00000-0 -13144-6 0 675
2 22782 082.5481 187.9606 0020985 318.9169 171.4396 13.83736494 47560
OKEAN-4
1 23317U 94066A 14149.82594833 .00000555 00000-0 61205-4 0 5452
2 23317 082.5394 085.1468 0021646 156.1210 259.8994 14.85504342 60385
NOAA-14
1 23455U 94089A 14148.32616911 -.00000063 00000-0 -10046-4 0 7642
2 23455 098.7783 232.1147 0010563 097.7567 303.9804 14.13974218 1142
NOAA-15
1 25338U 98030A 14149.78224681 .00000205 00000-0 87063-4 0 1995
2 25338 098.7514 143.6751 0010118 195.8432 164.2906 14.25423319834228
RESURS
1 25394U 98043A 14148.83499434 -.00000025 00000-0 71579-5 0 6662
2 25394 098.4110 114.0228 0000851 022.5915 032.6797 14.24394816825566
FENGYUN1
1 25730U 99025A 14149.83829251 .00000290 00000-0 18220-3 0 1572
2 25730 098.9114 111.0443 0025965 158.8408 261.1958 14.11882344774934
OKEAN-0
1 25860U 99039A 14149.79297105 .00000318 00000-0 54458-4 0 2625
2 25860 098.0409 113.7687 0002080 108.5130 311.8541 14.75261871799442
NOAA-16
1 26536U 00055A 14149.74205183 .00000155 00000-0 83225-4 0 6881
2 26536 098.9914 210.0209 0009791 234.0777 125.9972 14.13044486705589
NOAA-17
1 27453U 02032A 14149.72315185 .00000087 00000-0 37148-4 0 5931
2 27453 098.3127 150.4062 0010736 224.8211 135.2577 14.24747832619983
NOAA-18
1 28654U 05018A 14149.80744315 .00000176 00000-0 96360-4 0 870
2 28654 099.1455 128.9368 0013748 319.1971 040.8639 14.12020033464977
NOAA-19
1 33591U 09005A 14148.50868707 .00000033 00000-0 42566-4 0 2462
2 33591 098.9435 093.6061 0014310 170.8297 304.6965 14.11717501273215
HUBBLE
1 20580U 90037B 14147.51630336 .00001154 00000-0 66674-4 0 229
2 20580 028.4688 173.0101 0003338 063.2416 064.8356 15.05400702121601
ISS
1 25544U 98067A 14149.92532980 .00002996 00000-0 59415-4 0 3849
2 25544 051.6477 190.1227 0004095 048.2953 010.7504 15.50519974888493
CO-58
1 28895U 05043F 14149.52453070 .00000367 00000-0 82014-4 0 7790
2 28895 097.8367 352.3610 0018684 072.5441 287.7802 14.61873857457521
FALCON
1 30776U 07006E 14148.69479766 .00004389 00000-0 22488-3 0 8763
2 30776 035.4285 234.4168 0001507 149.1833 340.7083 15.16130960397772
MAST
1 31126U 07012K 14148.95138855 .00000430 00000-0 10369-3 0 557
2 31126 097.9125 130.8487 0093202 055.1475 005.0917 14.55260507377590
CAPE1
1 31130U 07012P 14147.91648802 .00000654 00000-0 15379-3 0 616
2 31130 097.9333 126.4968 0100478 075.8373 285.3964 14.54413301376866
COMPASS
1 32787U 08021E 14149.13411691 .00001779 00000-0 20026-3 0 9417
2 32787 097.7029 203.2105 0012834 239.0032 120.9924 14.87834812329358
AAUSAT2
1 32788U 08021F 14149.14731645 .00001834 00000-0 20281-3 0 9283
2 32788 097.7039 204.1877 0012345 236.6990 123.3045 14.88538236329419
DO-64
1 32789U 08021G 14149.18699466 .00004719 00000-0 45614-3 0 9688
2 32789 097.7223 210.5445 0011489 220.6280 205.2795 14.93227715329662
CO-66
1 32791U 08021J 14149.61204015 .00002083 00000-0 23526-3 0 9254
2 32791 097.7025 202.4755 0012981 243.3225 116.7177 14.86519914879823
RS-30
1 32953U 08025A 14149.71872039 .00000010 00000-0 00000 0 0 9634
2 32953 082.5042 212.6925 0018844 192.4483 167.6134 12.43047518272967
